This is the latest recevied weather packets stored in our database for station/object KC3BHK-2. If no packets are shown the sender has not sent any weather packets the latest 10 day(s).
| Time | Temp. | Humidity | Pressure | Rain* | Wind** | Luminosity | Snow |
|---|---|---|---|---|---|---|---|
| 1777813752 | 7.78° C | - | - | 0 mm | 7.6 m/s, 264° | - | - |
| 1777813444 | 7.78° C | - | - | 0 mm | 7.6 m/s, 288° | - | - |
| 1777813139 | 7.22° C | - | - | 0 mm | 7.15 m/s, 284° | - | - |
| 1777812834 | 6.67° C | - | - | 0 mm | 3.13 m/s, 309° | - | - |
| 1777812529 | 6.67° C | - | - | 0 mm | 4.02 m/s, 294° | - | - |
| 1777812224 | 6.11° C | - | - | 0 mm | 2.68 m/s, 315° | - | - |
| 1777811919 | 6.11° C | - | - | 0 mm | 7.6 m/s, 290° | - | - |
| 1777811611 | 6.67° C | - | - | 0 mm | 0.89 m/s, 332° | - | - |
| 1777811306 | 5.56° C | - | - | 0 mm | 1.79 m/s, 271° | - | - |
| 1777811001 | 6.11° C | - | - | 0 mm | 4.02 m/s, 288° | - | - |
| 1777810695 | 6.11° C | - | - | 0 mm | 1.79 m/s, 304° | - | - |
| 1777810390 | 6.11° C | - | - | 0 mm | 1.79 m/s, 314° | - | - |
| 1777809777 | 5.56° C | - | - | 0 mm | 1.79 m/s, 281° | - | - |
| 1777809472 | 5° C | - | - | 0 mm | 0 m/s | - | - |
| 1777809167 | 5.56° C | - | - | 0 mm | 0.89 m/s, 7° | - | - |
| 1777808862 | 5° C | - | - | 0 mm | 3.13 m/s, 283° | - | - |
| 1777808557 | 4.44° C | - | - | 0 mm | 0.89 m/s, 294° | - | - |
| 1777808252 | 4.44° C | - | - | 0 mm | 0 m/s | - | - |
| 1777807943 | 4.44° C | - | - | 0 mm | 1.34 m/s, 300° | - | - |
| 1777807638 | 4.44° C | - | - | 0 mm | 1.34 m/s, 298° | - | - |
| 1777807333 | 4.44° C | - | - | 0 mm | 1.34 m/s, 352° | - | - |
| 1777807027 | 5° C | - | - | 0 mm | 0.45 m/s, 338° | - | - |
| 1777806722 | 3.89° C | - | - | 0 mm | 3.13 m/s, 277° | - | - |
| 1777806417 | 3.89° C | - | - | 0 mm | 0.89 m/s, 277° | - | - |
| 1777806109 | 4.44° C | - | - | 0 mm | 3.58 m/s, 309° | - | - |
* Rain latest hour (hover to see other rain measurements)
** Current wind speed in m/s (hover to see current wind gust speed)